BEIDOU-2 IGSO-3 (C08)

Last updated on Thu Aug 13 2026 00:03:26 GMT+0000 (Coordinated Universal Time)

1 37384U 11013A 26223.85319985 -.00000150 00000+0 00000+0 0 9999 2 37384 62.4864 39.6277 0036458 183.6229 148.8204 1.00253949 56212
UTC large
Height (km)
Speed (km/s)
/
Latitude / Longitude
Inclination (degrees)
Orbital Period (minutes)
Azimuth
Elevation
Range (km)
Doppler Factor

Next 0 passes for location: London (51.5072 / 0.1276)

No passes found over London.
BEIDOU-2 IGSO-3 (C08)